User: anonymous   Login
Location: Unspecified
(0.0000°N, 0.0000°E)
Time: 03:11:36
(UTC+00:00)
Language:

NOAA 19 - Orbit

View from above orbital plane
View from above orbital plane
View from above satellite
View from above satellite

Ground track
Ground track

The orbit data is extracted from the following two-line orbital elements,

1 33591U 09005A   17349.57431954 +.00000107 +00000-0 +83383-4 0  9994
2 33591 099.1182 319.1993 0014779 120.3062 239.9573 14.12237518455994
Epoch (UTC): 15 December 2017 13:47:01
Eccentricity: 0.0014779
inclination: 99.1182°
perigee height: 841 km
apogee height: 862 km
right ascension of ascending node: 319.1993°
argument of perigee: 120.3062°
revolutions per day: 14.12237518
mean anomaly at epoch: 239.9573°
orbit number at epoch: 45599

The dashed part of the orbit path shows where the satellite is in the earth's shadow,  

DLR